When you browse on this site, cookies collect data to enhance your experience and personalize the content and advertising you see.
Visit our Privacy Policy to learn more. By continuing to use the site, you agree to this use of cookies and data.
EN

Hourly Weather Mansa

Today, 13 August, Thursday

Time Temperature Precipitation Wind Pressure Humidity
00:00 +16°C° 0 mm 2 mps 660 mmHg 30%
01:00 +15°C° 0 mm 2 mps 660 mmHg 33%
02:00 +13°C° 0 mm 2 mps 660 mmHg 35%
03:00 +13°C° 0 mm 2 mps 660 mmHg 36%
04:00 +12°C° 0 mm 2 mps 660 mmHg 38%
05:00 +10°C° 0 mm 2 mps 660 mmHg 39%
06:00 +13°C° 0 mm 2 mps 660 mmHg 36%
07:00 +15°C° 0 mm 2 mps 661 mmHg 32%
08:00 +17°C° 0 mm 3 mps 662 mmHg 29%
09:00 +21°C° 0 mm 3 mps 662 mmHg 24%
10:00 +25°C° 0 mm 3 mps 663 mmHg 19%
11:00 +29°C° 0 mm 3 mps 663 mmHg 14%
12:00 +30°C° 0 mm 3 mps 663 mmHg 12%
13:00 +33°C° 0 mm 3 mps 662 mmHg 11%
14:00 +34°C° 0 mm 3 mps 661 mmHg 9%
15:00 +32°C° 0 mm 2 mps 661 mmHg 10%
16:00 +31°C° 0 mm 2 mps 660 mmHg 10%
17:00 +31°C° 0 mm 2 mps 659 mmHg 11%
18:00 +27°C° 0 mm 2 mps 659 mmHg 13%
19:00 +24°C° 0 mm 1 mps 659 mmHg 16%
20:00 +20°C° 0 mm 1 mps 659 mmHg 19%
21:00 +19°C° 0 mm 2 mps 659 mmHg 20%
22:00 +18°C° 0 mm 3 mps 660 mmHg 22%
23:00 +18°C° 0 mm 3 mps 660 mmHg 23%

Tomorrow, 14 August, Friday

Time Temperature Precipitation Wind Pressure Humidity
00:00 +17°C° 0 mm 3 mps 660 mmHg 26%
01:00 +16°C° 0 mm 3 mps 659 mmHg 29%
02:00 +14°C° 0 mm 3 mps 659 mmHg 31%
03:00 +13°C° 0 mm 3 mps 659 mmHg 33%
04:00 +13°C° 0 mm 3 mps 659 mmHg 34%
05:00 +12°C° 0 mm 3 mps 659 mmHg 35%
06:00 +14°C° 0 mm 3 mps 660 mmHg 34%
07:00 +16°C° 0 mm 3 mps 660 mmHg 32%
08:00 +18°C° 0 mm 3 mps 661 mmHg 30%
09:00 +21°C° 0 mm 4 mps 662 mmHg 27%
10:00 +25°C° 0 mm 4 mps 662 mmHg 23%
11:00 +28°C° 0 mm 4 mps 663 mmHg 19%
12:00 +30°C° 0 mm 4 mps 662 mmHg 17%
13:00 +31°C° 0 mm 3 mps 661 mmHg 15%
14:00 +33°C° 0 mm 3 mps 660 mmHg 13%
15:00 +33°C° 0 mm 3 mps 660 mmHg 13%
16:00 +31°C° 0 mm 3 mps 659 mmHg 14%
17:00 +31°C° 0 mm 2 mps 659 mmHg 15%
18:00 +27°C° 0 mm 2 mps 659 mmHg 19%
19:00 +24°C° 0 mm 2 mps 658 mmHg 23%
20:00 +20°C° 0 mm 2 mps 658 mmHg 27%
21:00 +19°C° 0 mm 2 mps 658 mmHg 30%
22:00 +18°C° 0 mm 3 mps 658 mmHg 32%
23:00 +17°C° 0 mm 3 mps 659 mmHg 35%

Day after tomorrow, 15 August, Saturday

Time Temperature Precipitation Wind Pressure Humidity
00:00 +17°C° 0 mm 3 mps 658 mmHg 36%
01:00 +15°C° 0 mm 4 mps 658 mmHg 37%
02:00 +15°C° 0 mm 4 mps 658 mmHg 39%
03:00 +14°C° 0 mm 4 mps 658 mmHg 42%
04:00 +13°C° 0 mm 4 mps 658 mmHg 45%
05:00 +12°C° 0 mm 4 mps 658 mmHg 48%
06:00 +14°C° 0 mm 4 mps 659 mmHg 48%
07:00 +15°C° 0 mm 4 mps 660 mmHg 48%
08:00 +17°C° 0 mm 4 mps 660 mmHg 47%
09:00 +21°C° 0 mm 4 mps 661 mmHg 41%
10:00 +25°C° 0 mm 3 mps 661 mmHg 34%
11:00 +28°C° 0 mm 3 mps 662 mmHg 27%
12:00 +31°C° 0 mm 2 mps 661 mmHg 23%
13:00 +33°C° 0 mm 1 mps 661 mmHg 18%
14:00 +36°C° 0 mm 1 mps 661 mmHg 14%
15:00 +34°C° 0 mm 1 mps 660 mmHg 15%
16:00 +33°C° 0 mm 1 mps 659 mmHg 15%
17:00 +31°C° 0 mm 1 mps 658 mmHg 16%
18:00 +28°C° 0 mm 1 mps 658 mmHg 20%
19:00 +25°C° 0 mm 1 mps 658 mmHg 24%
20:00 +21°C° 0 mm 1 mps 657 mmHg 29%
21:00 +21°C° 0 mm 1 mps 657 mmHg 29%
22:00 +21°C° 0 mm 1 mps 658 mmHg 29%
23:00 +20°C° 0 mm 1 mps 658 mmHg 30%

16 August, Sunday

Time Temperature Precipitation Wind Pressure Humidity
00:00 +18°C° 0 mm 2 mps 658 mmHg 34%
01:00 +17°C° 0 mm 2 mps 657 mmHg 39%
02:00 +16°C° 0 mm 3 mps 657 mmHg 43%
03:00 +14°C° 0 mm 3 mps 657 mmHg 47%
04:00 +14°C° 0 mm 3 mps 657 mmHg 51%
05:00 +13°C° 0 mm 3 mps 657 mmHg 54%
06:00 +16°C° 0 mm 3 mps 658 mmHg 50%
07:00 +18°C° 0 mm 3 mps 659 mmHg 46%
08:00 +20°C° 0 mm 3 mps 660 mmHg 41%
09:00 +24°C° 0 mm 2 mps 660 mmHg 34%
10:00 +28°C° 0 mm 2 mps 661 mmHg 27%
11:00 +32°C° 0 mm 2 mps 661 mmHg 20%
12:00 +34°C° 0 mm 2 mps 661 mmHg 17%
13:00 +36°C° 0 mm 2 mps 660 mmHg 14%
14:00 +38°C° 0 mm 2 mps 660 mmHg 11%
15:00 +36°C° 0 mm 2 mps 659 mmHg 11%
16:00 +35°C° 0 mm 2 mps 659 mmHg 12%
17:00 +34°C° 0 mm 2 mps 658 mmHg 12%
18:00 +30°C° 0 mm 2 mps 658 mmHg 15%
19:00 +26°C° 0 mm 2 mps 657 mmHg 19%
20:00 +23°C° 0 mm 1 mps 657 mmHg 22%
21:00 +23°C° 0 mm 2 mps 657 mmHg 23%
22:00 +21°C° 0 mm 2 mps 658 mmHg 23%
23:00 +21°C° 0 mm 2 mps 658 mmHg 24%

17 August, Monday

Time Temperature Precipitation Wind Pressure Humidity
00:00 +20°C° 0 mm 2 mps 658 mmHg 28%
01:00 +19°C° 0 mm 2 mps 657 mmHg 32%
02:00 +18°C° 0 mm 2 mps 657 mmHg 37%
03:00 +17°C° 0 mm 2 mps 657 mmHg 39%
04:00 +16°C° 0 mm 2 mps 657 mmHg 42%
05:00 +15°C° 0 mm 2 mps 657 mmHg 44%
06:00 +17°C° 0 mm 2 mps 658 mmHg 42%
07:00 +19°C° 0 mm 2 mps 659 mmHg 39%
08:00 +21°C° 0 mm 2 mps 660 mmHg 37%
09:00 +26°C° 0 mm 3 mps 660 mmHg 31%
10:00 +29°C° 0 mm 3 mps 661 mmHg 25%
11:00 +34°C° 0 mm 3 mps 661 mmHg 18%
12:00 +35°C° 0 mm 3 mps 660 mmHg 16%
13:00 +36°C° 0 mm 3 mps 660 mmHg 14%
14:00 +37°C° 0 mm 3 mps 659 mmHg 12%
15:00 +36°C° 0 mm 2 mps 659 mmHg 13%
16:00 +36°C° 0 mm 2 mps 658 mmHg 13%
17:00 +35°C° 0 mm 2 mps 658 mmHg 13%
18:00 +30°C° 0 mm 2 mps 658 mmHg 15%
19:00 +27°C° 0 mm 1 mps 657 mmHg 18%
20:00 +24°C° 0 mm 1 mps 657 mmHg 21%
21:00 +23°C° 0 mm 2 mps 658 mmHg 23%
22:00 +23°C° 0 mm 2 mps 658 mmHg 25%
23:00 +21°C° 0 mm 3 mps 658 mmHg 27%

18 August, Tuesday

Time Temperature Precipitation Wind Pressure Humidity
00:00 +21°C° 0 mm 4 mps 658 mmHg 31%
01:00 +20°C° 0 mm 4 mps 658 mmHg 36%
02:00 +20°C° 0 mm 4 mps 658 mmHg 40%
03:00 +19°C° 0 mm 4 mps 658 mmHg 45%
04:00 +17°C° 0 mm 3 mps 658 mmHg 50%
05:00 +16°C° 0 mm 2 mps 658 mmHg 55%
06:00 +18°C° 0 mm 3 mps 659 mmHg 54%
07:00 +20°C° 0 mm 4 mps 660 mmHg 52%
08:00 +21°C° 0 mm 5 mps 661 mmHg 51%
09:00 +25°C° 0 mm 5 mps 661 mmHg 44%
10:00 +28°C° 0 mm 5 mps 661 mmHg 36%
11:00 +30°C° 0 mm 5 mps 662 mmHg 29%
12:00 +33°C° 0 mm 4 mps 661 mmHg 25%
13:00 +34°C° 0 mm 4 mps 660 mmHg 22%
14:00 +36°C° 0 mm 3 mps 660 mmHg 18%
15:00 +35°C° 0 mm 3 mps 659 mmHg 18%
16:00 +34°C° 0 mm 3 mps 659 mmHg 18%
17:00 +34°C° 0 mm 3 mps 658 mmHg 18%
18:00 +30°C° 0 mm 3 mps 658 mmHg 22%
19:00 +27°C° 0 mm 3 mps 658 mmHg 27%
20:00 +25°C° 0 mm 3 mps 658 mmHg 32%
21:00 +24°C° 0 mm 3 mps 658 mmHg 34%
22:00 +23°C° 0 mm 4 mps 659 mmHg 36%
23:00 +23°C° 0 mm 4 mps 659 mmHg 37%
Show more